| time (UTC) | temp F | wind direction | speed MPH | gust MPH | rain 1hr in | rain 24hr in | rain mn in | humidity % | barometer mb |
| 20260506050943 | 48 | 16 | 5.0 | 8.0 | 0.00 | 0.00 | 0.00 | 79 | 1012.5 |
| 20260506050440 | 48 | 96 | 4.0 | 6.0 | 0.00 | 0.00 | 0.00 | 79 | 1012.4 |
| 20260506044930 | 48 | 136 | 5.0 | 7.0 | 0.00 | 0.00 | 0.00 | 80 | 1012.8 |
| 20260506044429 | 48 | 57 | 4.0 | 6.0 | 0.00 | 0.00 | 0.00 | 80 | 1012.8 |
| 20260506043925 | 48 | 111 | 2.0 | 3.0 | 0.00 | 0.00 | 0.00 | 82 | 1012.8 |
| 20260506043423 | 48 | 183 | 3.0 | 4.0 | 0.00 | 0.00 | 0.00 | 82 | 1012.7 |
| 20260506042920 | 48 | 229 | 2.0 | 3.0 | 0.00 | 0.00 | 0.00 | 82 | 1012.8 |
| 20260506042420 | 48 | 38 | 5.0 | 7.0 | 0.00 | 0.00 | 0.00 | 83 | 1012.6 |
| 20260506041918 | 48 | 145 | 2.0 | 2.0 | 0.00 | 0.00 | 0.00 | 83 | 1012.6 |
| 20260506041415 | 48 | 33 | 4.0 | 4.0 | 0.00 | 0.00 | 0.00 | 83 | 1012.6 |
| 20260506040912 | 48 | 81 | 5.0 | 7.0 | 0.00 | 0.00 | 0.00 | 83 | 1012.7 |
| 20260506040409 | 48 | 107 | 3.0 | 4.0 | 0.00 | 0.00 | 0.00 | 84 | 1012.8 |
| 20260506035905 | 48 | 30 | 3.0 | 7.0 | 0.00 | 0.00 | 0.00 | 84 | 1012.8 |
| 20260506035403 | 48 | 215 | 1.0 | 1.0 | 0.00 | 0.00 | 0.00 | 84 | 1012.7 |
| 20260506034859 | 48 | 341 | 3.0 | 6.0 | 0.00 | 0.00 | 0.00 | 85 | 1012.8 |
| 20260506034358 | 48 | 52 | 6.0 | 7.0 | 0.00 | 0.00 | 0.00 | 84 | 1012.6 |
| 20260506033854 | 48 | 66 | 3.0 | 6.0 | 0.00 | 0.00 | 0.00 | 85 | 1012.7 |
| 20260506033351 | 48 | 92 | 11.0 | 14.0 | 0.00 | 0.00 | 0.00 | 85 | 1012.2 |
| 20260506032848 | 48 | 252 | 5.0 | 8.0 | 0.00 | 0.00 | 0.00 | 85 | 1012.3 |
| 20260506032344 | 48 | 181 | 2.0 | 3.0 | 0.00 | 0.00 | 0.00 | 86 | 1012.0 |
| 20260506031841 | 48 | 199 | 3.0 | 4.0 | 0.00 | 0.00 | 0.00 | 86 | 1011.9 |
| 20260506031339 | 48 | 280 | 7.0 | 13.0 | 0.00 | 0.00 | 0.00 | 87 | 1011.6 |
| 20260506030836 | 48 | 37 | 6.0 | 8.0 | 0.00 | 0.00 | 0.00 | 87 | 1011.3 |
| 20260506030334 | 48 | 299 | 7.0 | 10.0 | 0.00 | 0.00 | 0.00 | 87 | 1011.7 |
| 20260506025831 | 48 | 77 | 4.0 | 7.0 | 0.00 | 0.00 | 0.00 | 88 | 1011.8 |
| 20260506025327 | 48 | 76 | 9.0 | 13.0 | 0.00 | 0.00 | 0.00 | 89 | 1011.8 |
| 20260506024824 | 48 | 60 | 4.0 | 6.0 | 0.00 | 0.00 | 0.00 | 90 | 1012.1 |
| 20260506024321 | 48 | 5 | 6.0 | 9.0 | 0.00 | 0.00 | 0.00 | 90 | 1011.7 |
| 20260506023817 | 48 | 52 | 7.0 | 8.0 | 0.00 | 0.00 | 0.00 | 90 | 1011.7 |
| 20260506023314 | 48 | 8 | 5.0 | 8.0 | 0.00 | 0.00 | 0.00 | 90 | 1011.8 |
| 20260506022811 | 48 | 231 | 2.0 | 2.0 | 0.00 | 0.00 | 0.00 | 89 | 1011.9 |
| 20260506022309 | 48 | 34 | 4.0 | 6.0 | 0.00 | 0.00 | 0.00 | 88 | 1011.8 |
| 20260506021807 | 48 | 72 | 3.0 | 4.0 | 0.00 | 0.00 | 0.00 | 87 | 1011.9 |
| 20260506021303 | 48 | 47 | 6.0 | 9.0 | 0.00 | 0.00 | 0.00 | 87 | 1011.6 |
| 20260506020800 | 48 | 166 | 4.0 | 7.0 | 0.00 | 0.00 | 0.00 | 87 | 1011.7 |
| 20260506020258 | 49 | 255 | 4.0 | 6.0 | 0.00 | 0.00 | 0.00 | 87 | 1011.7 |
| 20260506015755 | 49 | 120 | 5.0 | 8.0 | 0.00 | 0.00 | 0.00 | 86 | 1011.5 |
| 20260506015252 | 49 | 300 | 4.0 | 6.0 | 0.00 | 0.00 | 0.00 | 86 | 1011.4 |
| 20260506014749 | 49 | 315 | 4.0 | 6.0 | 0.00 | 0.00 | 0.00 | 86 | 1011.4 |
| 20260506014246 | 49 | 43 | 4.0 | 7.0 | 0.00 | 0.00 | 0.00 | 85 | 1011.2 |
| 20260506013743 | 49 | 135 | 4.0 | 7.0 | 0.00 | 0.00 | 0.00 | 85 | 1010.9 |
| 20260506013240 | 49 | 34 | 3.0 | 4.0 | 0.00 | 0.00 | 0.00 | 86 | 1011.0 |
| 20260506012736 | 49 | 75 | 1.0 | 2.0 | 0.00 | 0.00 | 0.00 | 85 | 1011.2 |
| 20260506012233 | 49 | 246 | 2.0 | 2.0 | 0.00 | 0.00 | 0.00 | 85 | 1010.9 |
| 20260506011731 | 49 | 59 | 3.0 | 4.0 | 0.00 | 0.00 | 0.00 | 86 | 1011.0 |
| 20260506011227 | 49 | 274 | 1.0 | 2.0 | 0.00 | 0.00 | 0.00 | 86 | 1010.8 |
| 20260506010725 | 49 | 42 | 3.0 | 4.0 | 0.00 | 0.00 | 0.00 | 86 | 1010.6 |
| 20260506010222 | 49 | 172 | 4.0 | 6.0 | 0.00 | 0.00 | 0.00 | 86 | 1010.6 |
| 20260506005720 | 49 | 92 | 4.0 | 7.0 | 0.00 | 0.00 | 0.00 | 86 | 1010.4 |
| 20260506005216 | 49 | 217 | 2.0 | 3.0 | 0.00 | 0.00 | 0.00 | 85 | 1010.4 |
| 20260506004712 | 49 | 36 | 4.0 | 7.0 | 0.00 | 0.00 | 0.00 | 85 | 1010.1 |
| 20260506004210 | 49 | 56 | 6.0 | 7.0 | 0.00 | 0.00 | 0.00 | 85 | 1009.8 |
| 20260506003705 | 49 | 334 | 4.0 | 6.0 | 0.00 | 0.00 | 0.00 | 85 | 1009.8 |
| 20260506003202 | 50 | 61 | 4.0 | 6.0 | 0.00 | 0.00 | 0.00 | 84 | 1009.9 |
| 20260506002658 | 50 | 224 | 4.0 | 8.0 | 0.00 | 0.00 | 0.00 | 84 | 1010.1 |
| 20260506002154 | 50 | 55 | 4.0 | 4.0 | 0.00 | 0.00 | 0.00 | 83 | 1009.8 |
| 20260506001650 | 50 | 56 | 9.0 | 11.0 | 0.00 | 0.00 | 0.00 | 83 | 1009.9 |
| 20260506001148 | 50 | 258 | 5.0 | 6.0 | 0.00 | 0.00 | 0.00 | 82 | 1009.8 |
| 20260506000645 | 50 | 301 | 4.0 | 6.0 | 0.00 | 0.00 | 0.00 | 82 | 1009.8 |
| 20260506000142 | 50 | 244 | 3.0 | 3.0 | 0.00 | 0.00 | 0.00 | 82 | 1009.7 |
| 20260505235640 | 50 | 71 | 4.0 | 6.0 | 0.00 | 0.00 | 0.00 | 81 | 1009.8 |
| 20260505235137 | 50 | 334 | 3.0 | 4.0 | 0.00 | 0.00 | 0.00 | 81 | 1009.5 |
| 20260505234634 | 51 | 182 | 1.0 | 3.0 | 0.00 | 0.00 | 0.00 | 81 | 1009.5 |
| 20260505234130 | 51 | 345 | 5.0 | 7.0 | 0.00 | 0.00 | 0.00 | 80 | 1009.6 |
| 20260505233628 | 51 | 16 | 3.0 | 4.0 | 0.00 | 0.00 | 0.00 | 80 | 1010.1 |
| 20260505233125 | 51 | 19 | 2.0 | 3.0 | 0.00 | 0.00 | 0.00 | 80 | 1010.1 |
| 20260505232623 | 51 | 255 | 4.0 | 7.0 | 0.00 | 0.00 | 0.00 | 79 | 1010.1 |
| 20260505232120 | 51 | 84 | 5.0 | 9.0 | 0.00 | 0.00 | 0.00 | 79 | 1010.1 |
| 20260505231617 | 52 | 295 | 6.0 | 8.0 | 0.00 | 0.00 | 0.00 | 79 | 1010.0 |
| 20260505231116 | 52 | 144 | 4.0 | 4.0 | 0.00 | 0.00 | 0.00 | 80 | 1009.8 |
| 20260505230613 | 52 | 236 | 4.0 | 6.0 | 0.00 | 0.00 | 0.00 | 80 | 1009.6 |
| 20260505230109 | 52 | 178 | 3.0 | 8.0 | 0.00 | 0.00 | 0.00 | 80 | 1009.4 |
| 20260505225606 | 52 | 228 | 3.0 | 3.0 | 0.00 | 0.00 | 0.00 | 81 | 1009.2 |
| 20260505225102 | 52 | 358 | 4.0 | 7.0 | 0.00 | 0.00 | 0.00 | 81 | 1009.7 |
| 20260505224559 | 52 | 356 | 8.0 | 11.0 | 0.00 | 0.00 | 0.00 | 80 | 1009.6 |
| 20260505224056 | 52 | 240 | 3.0 | 4.0 | 0.00 | 0.00 | 0.00 | 81 | 1009.4 |
| 20260505223554 | 52 | 357 | 3.0 | 4.0 | 0.00 | 0.00 | 0.00 | 80 | 1009.4 |
| 20260505223049 | 52 | 4 | 7.0 | 9.0 | 0.00 | 0.00 | 0.00 | 80 | 1009.3 |
| 20260505222546 | 52 | 243 | 3.0 | 3.0 | 0.00 | 0.00 | 0.00 | 80 | 1009.1 |
| 20260505222042 | 52 | 220 | 1.0 | 1.0 | 0.00 | 0.00 | 0.00 | 81 | 1009.1 |
| 20260505221539 | 52 | 6 | 3.0 | 4.0 | 0.00 | 0.00 | 0.00 | 80 | 1009.2 |
| 20260505221036 | 52 | 36 | 5.0 | 9.0 | 0.00 | 0.00 | 0.00 | 80 | 1008.8 |
| 20260505220533 | 52 | 255 | 4.0 | 6.0 | 0.00 | 0.00 | 0.00 | 80 | 1009.1 |
| 20260505220031 | 52 | 23 | 3.0 | 6.0 | 0.00 | 0.00 | 0.00 | 80 | 1008.7 |
| 20260505215529 | 52 | 66 | 2.0 | 3.0 | 0.00 | 0.00 | 0.00 | 81 | 1008.7 |
| 20260505215026 | 52 | 345 | 5.0 | 7.0 | 0.00 | 0.00 | 0.00 | 80 | 1009.0 |
| 20260505214524 | 52 | 359 | 8.0 | 11.0 | 0.00 | 0.00 | 0.00 | 80 | 1008.6 |
| 20260505214021 | 53 | 277 | 4.0 | 6.0 | 0.00 | 0.00 | 0.00 | 80 | 1008.6 |
| 20260505213519 | 53 | 317 | 3.0 | 3.0 | 0.00 | 0.00 | 0.00 | 79 | 1008.6 |
| 20260505213015 | 53 | 334 | 4.0 | 6.0 | 0.00 | 0.00 | 0.00 | 80 | 1008.7 |
| 20260505212511 | 53 | 300 | 3.0 | 3.0 | 0.00 | 0.00 | 0.00 | 80 | 1008.5 |
| 20260505212009 | 53 | 31 | 6.0 | 9.0 | 0.00 | 0.00 | 0.00 | 80 | 1008.5 |
| 20260505211506 | 53 | 350 | 6.0 | 11.0 | 0.00 | 0.00 | 0.00 | 79 | 1007.7 |
| 20260505211002 | 54 | 42 | 8.0 | 15.0 | 0.00 | 0.00 | 0.00 | 79 | 1007.5 |
| 20260505210459 | 54 | 230 | 1.0 | 1.0 | 0.00 | 0.00 | 0.00 | 79 | 1008.1 |
| 20260505205955 | 54 | 69 | 2.0 | 2.0 | 0.00 | 0.00 | 0.00 | 80 | 1007.7 |
| 20260505205454 | 54 | 359 | 3.0 | 4.0 | 0.00 | 0.00 | 0.00 | 80 | 1008.4 |
| 20260505204950 | 54 | 237 | 3.0 | 4.0 | 0.00 | 0.00 | 0.00 | 80 | 1008.4 |
| 20260505204449 | 53 | 195 | 3.0 | 4.0 | 0.00 | 0.00 | 0.00 | 80 | 1008.5 |
| 20260505203946 | 53 | 332 | 3.0 | 4.0 | 0.00 | 0.00 | 0.00 | 81 | 1008.8 |
| 20260505203442 | 53 | 257 | 4.0 | 6.0 | 0.00 | 0.00 | 0.00 | 81 | 1008.9 |
| 20260505202938 | 53 | 154 | 4.0 | 6.0 | 0.00 | 0.00 | 0.00 | 81 | 1008.2 |
| 20260505202435 | 53 | 62 | 4.0 | 6.0 | 0.00 | 0.00 | 0.00 | 81 | 1008.4 |
| 20260505201931 | 54 | 42 | 9.0 | 14.0 | 0.00 | 0.00 | 0.00 | 81 | 1008.4 |
| 20260505201428 | 54 | 173 | 4.0 | 6.0 | 0.00 | 0.00 | 0.00 | 82 | 1007.9 |
| 20260505200926 | 53 | 55 | 7.0 | 9.0 | 0.00 | 0.00 | 0.00 | 83 | 1007.7 |
| 20260505200423 | 54 | 271 | 4.0 | 6.0 | 0.00 | 0.00 | 0.00 | 83 | 1008.1 |
| 20260505195919 | 54 | 30 | 5.0 | 7.0 | 0.00 | 0.00 | 0.00 | 83 | 1008.1 |
| 20260505195416 | 54 | 274 | 4.0 | 4.0 | 0.00 | 0.00 | 0.00 | 85 | 1007.8 |
| 20260505194913 | 53 | 184 | 7.0 | 10.0 | 0.00 | 0.00 | 0.00 | 85 | 1007.7 |
| 20260505194411 | 54 | 57 | 5.0 | 9.0 | 0.00 | 0.00 | 0.00 | 85 | 1007.9 |
| 20260505193911 | 54 | 61 | 6.0 | 9.0 | 0.00 | 0.00 | 0.00 | 85 | 1007.4 |
| 20260505193409 | 54 | 315 | 7.0 | 9.0 | 0.00 | 0.00 | 0.00 | 85 | 1008.1 |
| 20260505192907 | 55 | 270 | 7.0 | 10.0 | 0.00 | 0.00 | 0.00 | 85 | 1007.9 |
| 20260505192405 | 55 | 35 | 7.0 | 9.0 | 0.00 | 0.00 | 0.00 | 85 | 1007.7 |
| 20260505191902 | 55 | 14 | 7.0 | 9.0 | 0.00 | 0.00 | 0.00 | 85 | 1007.7 |
| 20260505191400 | 55 | 216 | 3.0 | 4.0 | 0.00 | 0.00 | 0.00 | 85 | 1007.5 |
| 20260505190857 | 55 | 253 | 5.0 | 7.0 | 0.00 | 0.00 | 0.00 | 85 | 1007.5 |
| 20260505190352 | 56 | 281 | 5.0 | 6.0 | 0.00 | 0.00 | 0.00 | 84 | 1007.4 |
| 20260505185848 | 55 | 239 | 2.0 | 3.0 | 0.00 | 0.00 | 0.00 | 85 | 1007.5 |
| 20260505185345 | 55 | 253 | 3.0 | 4.0 | 0.00 | 0.00 | 0.00 | 85 | 1007.5 |
| 20260505184841 | 55 | 24 | 5.0 | 8.0 | 0.00 | 0.00 | 0.00 | 84 | 1007.4 |
| 20260505184338 | 56 | 318 | 6.0 | 10.0 | 0.00 | 0.00 | 0.00 | 84 | 1007.5 |
| 20260505183835 | 56 | 81 | 4.0 | 7.0 | 0.00 | 0.00 | 0.00 | 85 | 1007.5 |
| 20260505183332 | 56 | 268 | 4.0 | 4.0 | 0.00 | 0.00 | 0.00 | 85 | 1007.4 |
| 20260505182829 | 56 | 23 | 6.0 | 9.0 | 0.00 | 0.00 | 0.00 | 85 | 1007.2 |
| 20260505182325 | 56 | 263 | 5.0 | 8.0 | 0.00 | 0.00 | 0.00 | 85 | 1007.4 |
| 20260505181822 | 56 | 346 | 6.0 | 9.0 | 0.00 | 0.00 | 0.00 | 85 | 1007.1 |
| 20260505181319 | 56 | 35 | 5.0 | 8.0 | 0.00 | 0.00 | 0.00 | 86 | 1006.9 |
| 20260505180816 | 56 | 159 | 4.0 | 4.0 | 0.00 | 0.00 | 0.00 | 86 | 1006.7 |
| 20260505180312 | 56 | 325 | 6.0 | 9.0 | 0.00 | 0.00 | 0.00 | 86 | 1006.9 |
| 20260505175809 | 56 | 41 | 3.0 | 4.0 | 0.00 | 0.00 | 0.00 | 87 | 1007.0 |
| 20260505175306 | 56 | 44 | 6.0 | 9.0 | 0.00 | 0.00 | 0.00 | 86 | 1006.8 |
| 20260505174802 | 56 | 324 | 6.0 | 10.0 | 0.00 | 0.00 | 0.00 | 86 | 1006.7 |
| 20260505174259 | 56 | 238 | 2.0 | 3.0 | 0.00 | 0.00 | 0.00 | 86 | 1006.7 |
| 20260505173755 | 56 | 271 | 4.0 | 6.0 | 0.00 | 0.00 | 0.00 | 86 | 1006.7 |
| 20260505173252 | 56 | 45 | 6.0 | 10.0 | 0.00 | 0.00 | 0.00 | 86 | 1006.4 |
| 20260505172749 | 56 | 353 | 6.0 | 9.0 | 0.00 | 0.00 | 0.00 | 85 | 1006.4 |
| 20260505172246 | 56 | 4 | 5.0 | 7.0 | 0.00 | 0.00 | 0.00 | 86 | 1006.3 |
| 20260505171746 | 56 | 249 | 2.0 | 2.0 | 0.00 | 0.00 | 0.00 | 87 | 1006.6 |
| 20260505171243 | 57 | 256 | 2.0 | 3.0 | 0.00 | 0.00 | 0.00 | 87 | 1006.3 |
| 20260505170739 | 56 | 305 | 3.0 | 6.0 | 0.00 | 0.00 | 0.00 | 88 | 1006.0 |
| 20260505170237 | 56 | 48 | 11.0 | 14.0 | 0.00 | 0.00 | 0.00 | 87 | 1005.9 |
| 20260505165732 | 56 | 65 | 9.0 | 14.0 | 0.00 | 0.00 | 0.00 | 88 | 1006.1 |
| 20260505165228 | 56 | 54 | 8.0 | 10.0 | 0.00 | 0.00 | 0.00 | 88 | 1005.8 |
| 20260505164724 | 56 | 237 | 1.0 | 2.0 | 0.00 | 0.00 | 0.00 | 88 | 1005.7 |
| 20260505164221 | 57 | 345 | 7.0 | 15.0 | 0.00 | 0.00 | 0.00 | 88 | 1005.7 |
| 20260505163719 | 57 | 310 | 6.0 | 13.0 | 0.00 | 0.00 | 0.00 | 88 | 1005.8 |
| 20260505163217 | 58 | 6 | 8.0 | 13.0 | 0.00 | 0.00 | 0.00 | 88 | 1005.5 |
| 20260505162714 | 58 | 245 | 4.0 | 7.0 | 0.00 | 0.00 | 0.00 | 87 | 1005.1 |
| 20260505162211 | 59 | 302 | 3.0 | 7.0 | 0.00 | 0.00 | 0.00 | 87 | 1004.7 |
| 20260505161708 | 60 | 277 | 5.0 | 6.0 | 0.00 | 0.00 | 0.00 | 87 | 1004.6 |
| 20260505161206 | 60 | 331 | 5.0 | 6.0 | 0.00 | 0.00 | 0.00 | 88 | 1004.0 |
| 20260505160703 | 61 | 39 | 7.0 | 9.0 | 0.00 | 0.00 | 0.00 | 87 | 1003.9 |
| 20260505160201 | 61 | 280 | 4.0 | 6.0 | 0.00 | 0.00 | 0.00 | 88 | 1003.7 |
| 20260505153140 | 68 | 327 | 2.0 | 3.0 | 0.00 | 0.00 | 0.00 | 87 | 1003.3 |
| 20260505152637 | 68 | 229 | 1.0 | 1.0 | 0.00 | 0.00 | 0.00 | 89 | 1003.1 |
| 20260505152132 | 69 | 31 | 4.0 | 6.0 | 0.00 | 0.00 | 0.00 | 88 | 1002.9 |
| 20260505151628 | 69 | 109 | 4.0 | 4.0 | 0.00 | 0.00 | 0.00 | 88 | 1002.7 |
| 20260505151126 | 69 | 231 | 2.0 | 2.0 | 0.00 | 0.00 | 0.00 | 89 | 1002.9 |
| 20260505150621 | 69 | 243 | 1.0 | 1.0 | 0.00 | 0.00 | 0.00 | 88 | 1002.7 |
| 20260505150119 | 69 | 137 | 4.0 | 4.0 | 0.00 | 0.00 | 0.00 | 87 | 1002.6 |
| 20260505140547 | 69 | 188 | 2.0 | 3.0 | 0.00 | 0.00 | 0.00 | 88 | 1001.8 |
| 20260505125000 | 68 | 196 | 0.0 | 1.0 | 0.00 | 0.00 | 0.00 | 87 | 1001.1 |
| 20260505124457 | 68 | 195 | 1.0 | 1.0 | 0.00 | 0.00 | 0.00 | 86 | 1001.4 |
| 20260505123953 | 68 | 202 | 1.0 | 1.0 | 0.00 | 0.00 | 0.00 | 86 | 1001.3 |
| 20260505123450 | 68 | 203 | 1.0 | 1.0 | 0.00 | 0.00 | 0.00 | 85 | 1001.2 |
| 20260505122946 | 68 | 203 | 1.0 | 1.0 | 0.00 | 0.00 | 0.00 | 86 | 1001.2 |
| 20260505122443 | 68 | 204 | 0.0 | 0.0 | 0.00 | 0.00 | 0.00 | 85 | 1001.1 |
| 20260505121940 | 68 | 189 | 1.0 | 2.0 | 0.00 | 0.00 | 0.00 | 85 | 1001.0 |
| 20260505121437 | 68 | 196 | 1.0 | 1.0 | 0.00 | 0.00 | 0.00 | 84 | 1001.1 |
| 20260505120933 | 67 | 195 | 1.0 | 1.0 | 0.00 | 0.00 | 0.00 | 86 | 1001.1 |
| 20260505120430 | 68 | 217 | 1.0 | 1.0 | 0.00 | 0.00 | 0.00 | 85 | 1001.0 |
| 20260505115929 | 68 | 196 | 1.0 | 1.0 | 0.00 | 0.00 | 0.00 | 84 | 1000.6 |
| 20260505115425 | 68 | 187 | 2.0 | 2.0 | 0.00 | 0.00 | 0.00 | 84 | 1000.8 |
| 20260505114923 | 68 | 208 | 0.0 | 0.0 | 0.00 | 0.00 | 0.00 | 83 | 1000.7 |
| 20260505114419 | 69 | 201 | 1.0 | 2.0 | 0.00 | 0.00 | 0.00 | 83 | 1000.4 |
| 20260505113915 | 69 | 211 | 1.0 | 1.0 | 0.00 | 0.00 | 0.00 | 81 | 1000.2 |
| 20260505113413 | 70 | 222 | 1.0 | 1.0 | 0.00 | 0.00 | 0.00 | 80 | 1000.1 |
| 20260505112908 | 70 | 207 | 2.0 | 3.0 | 0.00 | 0.00 | 0.00 | 80 | 999.6 |
| 20260505112406 | 70 | 220 | 3.0 | 6.0 | 0.00 | 0.00 | 0.00 | 79 | 999.5 |
| 20260505111902 | 70 | 203 | 5.0 | 9.0 | 0.00 | 0.00 | 0.00 | 80 | 999.6 |
| 20260505111357 | 70 | 201 | 4.0 | 8.0 | 0.00 | 0.00 | 0.00 | 80 | 999.5 |
| 20260505110853 | 70 | 211 | 2.0 | 2.0 | 0.00 | 0.00 | 0.00 | 80 | 999.3 |
| 20260505110351 | 70 | 211 | 0.0 | 1.0 | 0.00 | 0.00 | 0.00 | 80 | 999.7 |
| 20260505101821 | 71 | 242 | 7.0 | 10.0 | 0.00 | 0.00 | 0.00 | 78 | 998.7 |
| 20260505101316 | 71 | 211 | 5.0 | 8.0 | 0.00 | 0.00 | 0.00 | 78 | 998.7 |
| 20260505100812 | 71 | 235 | 8.0 | 10.0 | 0.00 | 0.00 | 0.00 | 78 | 998.9 |
| 20260505100309 | 71 | 212 | 1.0 | 2.0 | 0.00 | 0.00 | 0.00 | 78 | 998.9 |
| 20260505095805 | 71 | 215 | 4.0 | 6.0 | 0.00 | 0.00 | 0.00 | 78 | 998.9 |
| 20260505095304 | 71 | 207 | 6.0 | 8.0 | 0.00 | 0.00 | 0.00 | 78 | 998.7 |
| 20260505094758 | 71 | 250 | 6.0 | 8.0 | 0.00 | 0.00 | 0.00 | 78 | 998.7 |
| 20260505094255 | 72 | 217 | 4.0 | 7.0 | 0.00 | 0.00 | 0.00 | 77 | 998.7 |
| 20260505093750 | 71 | 211 | 6.0 | 8.0 | 0.00 | 0.00 | 0.00 | 77 | 998.9 |
| 20260505093249 | 72 | 192 | 5.0 | 7.0 | 0.00 | 0.00 | 0.00 | 78 | 998.7 |
| 20260505092745 | 72 | 193 | 4.0 | 8.0 | 0.00 | 0.00 | 0.00 | 77 | 998.5 |
| 20260505092244 | 72 | 149 | 9.0 | 13.0 | 0.00 | 0.00 | 0.00 | 77 | 998.4 |
| 20260505091741 | 72 | 206 | 7.0 | 9.0 | 0.00 | 0.00 | 0.00 | 77 | 998.6 |
| 20260505091239 | 72 | 233 | 7.0 | 10.0 | 0.00 | 0.00 | 0.00 | 77 | 998.8 |
| 20260505090736 | 71 | 194 | 5.0 | 7.0 | 0.00 | 0.00 | 0.00 | 77 | 998.9 |
| 20260505090234 | 71 | 197 | 3.0 | 4.0 | 0.00 | 0.00 | 0.00 | 78 | 999.2 |
| 20260505085731 | 71 | 211 | 2.0 | 4.0 | 0.00 | 0.00 | 0.00 | 78 | 999.1 |
| 20260505085229 | 71 | 211 | 5.0 | 10.0 | 0.00 | 0.00 | 0.00 | 78 | 999.1 |
| 20260505084726 | 71 | 200 | 6.0 | 8.0 | 0.00 | 0.00 | 0.00 | 78 | 998.9 |
| 20260505084226 | 71 | 200 | 3.0 | 6.0 | 0.00 | 0.00 | 0.00 | 78 | 999.2 |
| 20260505083722 | 71 | 229 | 11.0 | 13.0 | 0.00 | 0.00 | 0.00 | 78 | 999.1 |
| 20260505083219 | 71 | 225 | 9.0 | 17.0 | 0.00 | 0.00 | 0.00 | 78 | 999.3 |
| 20260505082715 | 71 | 182 | 6.0 | 10.0 | 0.00 | 0.00 | 0.00 | 78 | 999.2 |
| 20260505082212 | 71 | 217 | 3.0 | 3.0 | 0.00 | 0.00 | 0.00 | 78 | 999.4 |
| 20260505081707 | 71 | 196 | 7.0 | 11.0 | 0.00 | 0.00 | 0.00 | 78 | 999.4 |
| 20260505081205 | 71 | 183 | 6.0 | 11.0 | 0.00 | 0.00 | 0.00 | 78 | 999.5 |
| 20260505080703 | 71 | 222 | 6.0 | 8.0 | 0.00 | 0.00 | 0.00 | 78 | 999.5 |
| 20260505080158 | 71 | 195 | 8.0 | 10.0 | 0.00 | 0.00 | 0.00 | 78 | 999.6 |
| 20260505075654 | 71 | 205 | 0.0 | 1.0 | 0.00 | 0.00 | 0.00 | 78 | 999.5 |
| 20260505075151 | 71 | 225 | 6.0 | 9.0 | 0.00 | 0.00 | 0.00 | 78 | 999.5 |
| 20260505074648 | 71 | 180 | 11.0 | 14.0 | 0.00 | 0.00 | 0.00 | 78 | 999.5 |
| 20260505074145 | 71 | 202 | 4.0 | 4.0 | 0.00 | 0.00 | 0.00 | 78 | 999.6 |
| 20260505073643 | 71 | 208 | 7.0 | 8.0 | 0.00 | 0.00 | 0.00 | 78 | 999.7 |
| 20260505073141 | 71 | 211 | 6.0 | 13.0 | 0.00 | 0.00 | 0.00 | 78 | 999.6 |
| 20260505072636 | 71 | 155 | 5.0 | 9.0 | 0.00 | 0.00 | 0.00 | 78 | 999.8 |
| 20260505072133 | 71 | 192 | 4.0 | 6.0 | 0.00 | 0.00 | 0.00 | 78 | 999.8 |
| 20260505071628 | 71 | 204 | 4.0 | 4.0 | 0.00 | 0.00 | 0.00 | 78 | 999.9 |
| 20260505071126 | 71 | 197 | 7.0 | 10.0 | 0.00 | 0.00 | 0.00 | 78 | 1000.3 |
| 20260505070623 | 71 | 177 | 3.0 | 3.0 | 0.00 | 0.00 | 0.00 | 78 | 1000.0 |
| 20260505070119 | 71 | 208 | 4.0 | 8.0 | 0.00 | 0.00 | 0.00 | 78 | 1000.2 |
| 20260505065616 | 71 | 206 | 6.0 | 7.0 | 0.00 | 0.00 | 0.00 | 78 | 1000.3 |
| 20260505065112 | 71 | 210 | 1.0 | 1.0 | 0.00 | 0.00 | 0.00 | 78 | 1000.3 |
| 20260505064609 | 71 | 201 | 5.0 | 7.0 | 0.00 | 0.00 | 0.00 | 78 | 1000.4 |
| 20260505064108 | 71 | 203 | 4.0 | 4.0 | 0.00 | 0.00 | 0.00 | 77 | 1000.4 |
| 20260505063605 | 71 | 217 | 6.0 | 10.0 | 0.00 | 0.00 | 0.00 | 77 | 1000.3 |
| 20260505063100 | 71 | 208 | 4.0 | 9.0 | 0.00 | 0.00 | 0.00 | 77 | 1000.4 |
| 20260505062557 | 71 | 208 | 3.0 | 4.0 | 0.00 | 0.00 | 0.00 | 77 | 1000.4 |
| 20260505062054 | 71 | 184 | 2.0 | 2.0 | 0.00 | 0.00 | 0.00 | 77 | 1000.6 |
| 20260505061552 | 71 | 188 | 6.0 | 7.0 | 0.00 | 0.00 | 0.00 | 77 | 1000.4 |
| 20260505061050 | 71 | 224 | 4.0 | 6.0 | 0.00 | 0.00 | 0.00 | 77 | 1000.5 |
| 20260505060547 | 72 | 207 | 4.0 | 7.0 | 0.00 | 0.00 | 0.00 | 77 | 1000.6 |
| 20260505060044 | 71 | 192 | 9.0 | 13.0 | 0.00 | 0.00 | 0.00 | 77 | 1000.6 |
| 20260505055538 | 71 | 202 | 3.0 | 3.0 | 0.00 | 0.00 | 0.00 | 77 | 1000.9 |
| 20260505055036 | 71 | 199 | 4.0 | 7.0 | 0.00 | 0.00 | 0.00 | 77 | 1000.9 |